TimeEET,TemperatureF,Dew PointF,Humidity,Sea Level PressureIn,VisibilityMPH,Wind Direction,Wind SpeedMPH,Gust SpeedMPH,PrecipitationIn,Events,Conditions,WindDirDegrees,DateUTC
12:20 AM,-11.2,-13.0,92,30.21,3.7,Variable,2.3,-,N/A,,Unknown,0,2013-01-01 22:20:00
12:50 AM,-7.6,-9.4,92,30.24,4.3,Calm,Calm,-,N/A,,Unknown,0,2013-01-01 22:50:00
1:20 AM,-11.2,-14.8,84,30.24,4.3,Variable,2.3,-,N/A,,Unknown,0,2013-01-01 23:20:00
1:50 AM,-9.4,-13.0,84,30.24,4.3,West,3.5,-,N/A,,Unknown,270,2013-01-01 23:50:00
2:00 AM,-10,-10,100,,4,West,3.5,,,,Mist,270,2013-01-02 00:00:00
2:20 AM,-9.4,-11.2,92,30.24,4.3,WSW,3.5,-,N/A,,Unknown,240,2013-01-02 00:20:00
2:50 AM,-11.2,-13.0,92,30.24,4.3,SSW,2.3,-,N/A,,Unknown,200,2013-01-02 00:50:00
3:20 AM,-11.2,-14.8,84,30.24,4.3,Variable,1.2,-,N/A,,Unknown,0,2013-01-02 01:20:00
3:50 AM,-13.0,-16.6,84,30.24,4.3,Variable,2.3,-,N/A,,Unknown,0,2013-01-02 01:50:00
4:20 AM,-13.0,-16.6,84,30.24,4.3,North,3.5,-,N/A,,Unknown,350,2013-01-02 02:20:00
4:50 AM,-11.2,-13.0,92,30.24,4.3,Variable,2.3,-,N/A,,Unknown,0,2013-01-02 02:50:00
5:20 AM,-13.0,-14.8,92,30.24,4.3,SE,3.5,-,N/A,,Unknown,140,2013-01-02 03:20:00
5:50 AM,-9.4,-13.0,84,30.27,4.3,Variable,1.2,-,N/A,,Unknown,0,2013-01-02 03:50:00
6:20 AM,-11.2,-14.8,84,30.27,3.7,West,4.6,-,N/A,,Unknown,280,2013-01-02 04:20:00
6:50 AM,-13.0,-16.6,84,30.27,4.3,Variable,1.2,-,N/A,,Unknown,0,2013-01-02 04:50:00
7:20 AM,-13.0,-16.6,84,30.27,3.7,Variable,1.2,-,N/A,,Unknown,0,2013-01-02 05:20:00
7:50 AM,-11.2,-14.8,84,30.30,3.7,Variable,1.2,-,N/A,,Unknown,0,2013-01-02 05:50:00
8:00 AM,-11,-11,100,,4,ESE,1.2,,,,Mist,110,2013-01-02 06:00:00
8:20 AM,-7.6,-11.2,84,30.30,3.7,Variable,2.3,-,N/A,,Unknown,0,2013-01-02 06:20:00
8:50 AM,-7.6,-11.2,84,30.30,3.7,Variable,2.3,-,N/A,,Unknown,0,2013-01-02 06:50:00
9:20 AM,-4.0,-9.4,78,30.30,1.1,Variable,2.3,-,N/A,,Mist,0,2013-01-02 07:20:00
9:50 AM,1.4,-4.0,78,30.30,1.6,Variable,1.2,-,N/A,,Mist,0,2013-01-02 07:50:00
10:20 AM,3.2,-4.0,72,30.30,1.5,WNW,4.6,-,N/A,,Mist,290,2013-01-02 08:20:00
10:50 AM,8.6,5.0,85,30.30,1.2,Calm,Calm,-,N/A,,Mist,0,2013-01-02 08:50:00
11:20 AM,8.6,3.2,79,30.30,3.7,Variable,2.3,-,N/A,,Mist,0,2013-01-02 09:20:00
11:50 AM,14.0,3.2,62,30.27,3.7,Calm,Calm,-,N/A,,Unknown,0,2013-01-02 09:50:00
12:20 PM,10.4,3.2,73,30.27,3.7,NNE,3.5,-,N/A,,Unknown,20,2013-01-02 10:20:00
12:50 PM,10.4,3.2,73,30.27,3.7,NNE,3.5,-,N/A,,Unknown,20,2013-01-02 10:50:00
1:20 PM,10.4,3.2,73,30.27,3.7,Variable,2.3,-,N/A,,Unknown,0,2013-01-02 11:20:00
1:50 PM,12.2,3.2,67,30.27,3.7,Variable,2.3,-,N/A,,Unknown,0,2013-01-02 11:50:00
2:00 PM,11,6,74,,4,East,2.3,,,,Mist,80,2013-01-02 12:00:00
2:20 PM,12.2,3.2,67,30.30,3.7,ENE,1.2,-,N/A,,Unknown,60,2013-01-02 12:20:00
2:50 PM,12.2,1.4,62,30.30,3.7,Variable,1.2,-,N/A,,Unknown,0,2013-01-02 12:50:00
3:20 PM,12.2,1.4,62,30.30,3.7,Calm,Calm,-,N/A,,Unknown,0,2013-01-02 13:20:00
3:50 PM,5.0,-0.4,78,30.30,3.7,ESE,2.3,-,N/A,,Unknown,120,2013-01-02 13:50:00
4:20 PM,1.4,-4.0,78,30.30,3.7,East,2.3,-,N/A,,Unknown,100,2013-01-02 14:20:00
4:50 PM,3.2,-0.4,85,30.30,2.5,East,2.3,-,N/A,,Mist,90,2013-01-02 14:50:00
5:20 PM,1.4,-2.2,85,30.33,2.5,West,1.2,-,N/A,,Mist,280,2013-01-02 15:20:00
5:50 PM,-0.4,-4.0,85,30.33,2.5,North,2.3,-,N/A,,Mist,10,2013-01-02 15:50:00
6:20 PM,-2.2,-4.0,92,30.33,2.5,Calm,Calm,-,N/A,,Mist,0,2013-01-02 16:20:00
6:50 PM,-2.2,-5.8,85,30.33,-9999.0,West,2.3,-,N/A,,Mist,270,2013-01-02 16:50:00
7:20 PM,-0.4,-4.0,85,30.33,2.5,WSW,1.2,-,N/A,,Mist,250,2013-01-02 17:20:00
7:50 PM,-4.0,-5.8,92,30.33,2.5,West,1.2,-,N/A,,Mist,260,2013-01-02 17:50:00
8:00 PM,-4,-4,97,,2,West,1.2,,,,Mist,260,2013-01-02 18:00:00
8:20 PM,-4.0,-7.6,85,30.33,2.5,WNW,2.3,-,N/A,,Mist,290,2013-01-02 18:20:00
8:50 PM,-5.8,-9.4,84,30.33,2.5,Calm,Calm,-,N/A,,Mist,0,2013-01-02 18:50:00
9:20 PM,-7.6,-9.4,92,30.33,2.5,Calm,Calm,-,N/A,,Mist,0,2013-01-02 19:20:00
9:50 PM,-5.8,-7.6,92,30.36,2.5,Calm,Calm,-,N/A,,Mist,0,2013-01-02 19:50:00
10:20 PM,-5.8,-7.6,92,30.36,2.5,SW,2.3,-,N/A,,Mist,230,2013-01-02 20:20:00
10:50 PM,-5.8,-7.6,92,30.36,-9999.0,Variable,2.3,-,N/A,,Mist,0,2013-01-02 20:50:00
11:20 PM,-9.4,-13.0,84,30.36,-9999.0,Calm,Calm,-,N/A,,Mist,0,2013-01-02 21:20:00
11:50 PM,-9.4,-13.0,84,30.36,-9999.0,Calm,Calm,-,N/A,,Mist,0,2013-01-02 21:50:00